STARLINK-1172, 45074

Orbit data source: Space-Track

STARLINK-1172, 45074 is a payload satellite owned by SpaceX/Seattle (US) in LEO that was launched on Wed, 29 Jan 2020 UTC via an FALCON 9 launch vehicle from the Air Force Eastern Test Range (AFETR). Payload-class satellites include a variety of spacecraft equipped with specific instruments for various scientific and technological missions. These include communications satellites like Starlink; space stations such as the ISS; scientific satellites like the Hubble; Earth observation satellites from companies like Planet Labs, Umbra, and HawkEye 360; GPS; miniature CubeSats for education and research; and military/defense satellites.

Loading next visibility...
Identifier
45074, 2020-006AG
Orbit
LEO
Country
Flag of USUS
Related business
Manufacturer
SpaceX/Seattle
Mission
Operational Commercial Communications
Bus & Motor
STARLINK, Unknown motor
Mass
260 kg wet, ~248 kg dry
Launch date (UTC)
2020-01-29 (6 years ago)
Launch vehicle
FALCON 9
Launch site
Air Force Eastern Test Range (AFETR)
Object type
Payload
Rocket body
Debris
Shape & HBR
Box + 1 Pan, 10.1 m
Radar Cross Section
13.562 m², Large (>1 m²)

Expand to show TLE details & history
Last TLE update: 8 hours ago

TLE from 8 hours ago
0 STARLINK-1172
1 45074U 20006AG  26062.82925679 -.00000274  00000-0  28577-5 0  9990
2 45074  53.1586 285.0414 0001121  68.7999 291.3121 15.30201160335972
Epoch: 2026-03-03T19:54Z
TLE epoch observation values (Epoch: 2026-03-03T19:54:07.786Z)
Latitude
-0.00007°
Longitude
-175.09379°
Altitude
475.832 km
Speed
7.629 km/s
True Right ascension
19h 00m 09s
True Declination
0° 00' 00"
Sunlit
Object was in daylight at epoch
Visualization orbit readout
Latitude
Unknown
Longitude
Unknown
Altitude
Unknown
Speed
Unknown
Apparent Right ascension
Unknown
Apparent Declination
Unknown
Sunlit
N/A
Visualization observer readout
Local Sidereal Time
07:44:37
Azimuth
Unknown
Elevation
Unknown
Doppler factor
Unknown
Orbital elements
Apogee altitude
476.237 km
Perigee altitude
474.7 km
Semi-major axis
6,853.605 km
Eccentricity
0.00011
Inclination
53.1586°
RAAN
285.0414°
Arg. of periapsis
68.7999°
True anomaly
291.30013°
Mean anomaly
291.3121°
Eccentric anomaly
291.30612°
Mean motion
3.82529 °/min
Orbital period
94.11 mins
BSTAR
0.0000028577
Loading maneuver chart data...
Computing Atmospheric mass density...
Loading historical data...
Loading historical data...
Loading historical data...
Loading historical data...
Loading historical data...
Loading historical data...
Loading historical data...

Documentation

Showing up to 5 results
|